铱星星座 45星 (IRIDIUM 45)

导读 | 豆包AI

IRIDIUM 45是美国铱星系统的通信卫星,于1997年12月20日发射升空,是全球低轨个人卫星移动通信系统的组成部分。铱系统由摩托罗拉公司提出设计,IRIDIUM 45运行于高度约780公里的极地圆轨道,依托星上处理、交换及星际链路技术,为全球提供数字化个人通信服务,助力实现全球无缝覆盖的移动互联。

Basic Information
目录编号:
25104
目录名称:
IRIDIUM 45
国际标识:
1997-082A
轨道中心:
EARTH
卫星名称:
铱星星座 45星
卫星全名:
铱星星座 45星 (IRIDIUM 45)
卫星状态:
在轨 (已飞行10357 天)
发射日期:
1997-12-20 UTC
国别 :
美国 (US)
星等 :
--
Orbit Information
数据来源 国际轨道数据 AOE轨道数据
星历时间 2026-04-29T04:33:23+0800
4小时前
查看轨道信息
2026-04-26T05:00:00+0800
3天前
查看轨道信息
半长轴 6826.398km 6827.041km
偏心率 0.0082884 0.0082866
轨道倾角 86.350° 86.350°
近地点辐角 213.737° 225.365°
升交点赤经 252.625° 254.115°
平近点角 145.860° 185.045°
近地点 391.681km 392.331km
远地点 504.841km 505.477km
周期 93.551分钟 93.564分钟
每日圈数 15.392721 15.390546
Detailed Information
平衡模式:
三轴稳定
覆盖范围:
全球
运营商:
铱星通信公司
运营商所在国:
美国
使用方式:
暂无
Satellite Introduction
铱星(Iridium)是由共66个运作中的通信卫星组成的卫星通信系统。这个系统原本规划77个通信卫星,所以用原子序数为77的铱元素来命名。铱卫星允许人们使用手持型电子设备进行全球性的语音及数据通讯。该卫星已退役。
2D Orbit Map
3D Orbit Map
Orbit Altitude Analysis Chart
Orbit Inclination Analysis Chart
Orbit Comprehensive Analysis Chart
View Comprehensive Chart